{"data":{"norad_id":69947,"epoch":"2026-09-20T04:12:02.083104Z","epoch_age_seconds":45847,"freshness":"FRESH","line1":"1 69947U 26157E   26263.17502411  .00000661  00000+0  30683-4 0  9992","line2":"2 69947  53.1608 335.1907 0001455 100.8128 259.3038 15.34408119 11326","mean_motion":15.34408119,"eccentricity":0.0001455,"inclination_deg":53.1608,"raan_deg":335.1907,"arg_perigee_deg":100.8128,"mean_anomaly_deg":259.3038,"bstar":3.0683e-5,"rev_number":1132,"period_min":93.847261505529,"perigee_km":461.68377019066,"apogee_km":463.67444767836,"semimajor_km":6840.8161089345,"source":"CELESTRAK","updated_at":"2026-09-20T09:00:44.299515Z"}}